Squamish (Auto8), British Columbia

3:55 AM PST on February 25, 2017 (GMT -0800)
Squamish

Weather History for CWSK - October, 2012

Change the Weather History Date:

Tuesday, October 9, 2012

  Actual Average Record
Temperature  
Mean Temperature 52 °F -  
Max Temperature 63 °F - - ()
Min Temperature 40 °F - - ()
Degree Days  
Heating Degree Days 14    
Growing Degree Days 2 (Base 50)    
Moisture  
Dew Point 44 °F    
Average Humidity 81    
Maximum Humidity 99    
Minimum Humidity 46    
Precipitation  
Precipitation 0.00 in - - ()
Sea Level Pressure  
Sea Level Pressure 30.05 in    
Wind  
Wind Speed 2 mph ()    
Max Wind Speed 9 mph    
Max Gust Speed -    
T = Trace of Precipitation, MM = Missing Value Source: Averaged Metar Reports

Daily Weather History Graph

Daily Weather History Graph

Search for Another Location

Airport or City:

Trip Planner

Search our weather history database for the weather conditions in past years. The results will help you decide how hot, cold, wet, or windy it might be!

Date:

Astronomy

Oct. 09, 2012 Rise Set
Actual Time 7:25 AM PDT 6:32 PM PDT
Civil Twilight 6:53 AM PDT 7:04 PM PDT
Nautical Twilight 6:16 AM PDT 7:42 PM PDT
Astronomical Twilight 5:38 AM PDT 8:19 PM PDT
Moon 12:34 AM PDT (10/9) 3:33 PM PDT (10/9)
Length of Visible Light 12h 11m
Length of Day
11h 06m
Waning Crescent, 35% of the Moon is Illuminated
Oct 9
Waning Crescent
Oct 15
New
Oct 21
First Quarter
Oct 29
Full
Nov 6
Last Quarter

Hourly Weather History & Observations

Time (PDT) Temp. Dew Point Humidity Pressure Visibility Wind Dir Wind Speed Gust Speed Precip Events Conditions
12:00 AM 46.6 °F 43.5 °F 89% 30.00 in - NE 2.3 mph - N/A   Unknown
1:00 AM 45.0 °F 42.1 °F 90% 30.02 in - NE 2.3 mph - N/A   Unknown
2:00 AM 45 °F 43 °F 90% 30.03 in - NNE 1.2 mph - -  
2:00 AM 44.6 °F 43.0 °F 94% 30.03 in - NNE 1.2 mph - N/A   Unknown
3:00 AM 44.2 °F 42.1 °F 92% 30.04 in - NE 2.3 mph - N/A   Unknown
4:00 AM 43.5 °F 42.8 °F 97% 30.05 in - NNE 2.3 mph - N/A   Unknown
5:00 AM 43 °F 42 °F 96% 30.06 in - North 1.2 mph - -  
5:00 AM 42.6 °F 42.3 °F 99% 30.06 in - North 1.2 mph - N/A   Unknown
6:00 AM 41.7 °F 41.4 °F 99% 30.07 in - NE 2.3 mph - N/A   Unknown
7:00 AM 41.2 °F 41.0 °F 99% 30.08 in - NNE 1.2 mph - N/A   Unknown
8:00 AM 41 °F 41 °F 98% 30.09 in - Calm Calm - -  
8:00 AM 41.0 °F 40.6 °F 99% 30.09 in - Calm Calm - N/A   Unknown
9:00 AM 44.4 °F 43.3 °F 96% 30.10 in - NNE 1.2 mph - N/A   Unknown
10:00 AM 53.1 °F 45.3 °F 75% 30.10 in - West 1.2 mph - N/A   Unknown
11:00 AM 58 °F 44 °F 48% 30.09 in - SSW 1.2 mph - -  
11:00 AM 58.3 °F 43.5 °F 58% 30.09 in - SSW 1.2 mph - N/A   Unknown
12:00 PM 61.5 °F 43.7 °F 52% 30.08 in - South 5.8 mph - N/A   Unknown
1:00 PM 61.7 °F 45.9 °F 56% 30.06 in - SSE 8.1 mph - N/A   Unknown
2:00 PM 62 °F 46 °F 46% 30.04 in - South 9.2 mph - -  
2:00 PM 61.5 °F 46.4 °F 58% 30.04 in - South 9.2 mph - N/A   Unknown
3:00 PM 61.3 °F 47.1 °F 60% 30.03 in - SSE 8.1 mph - N/A   Unknown
4:00 PM 61.5 °F 47.7 °F 60% 30.02 in - South 8.1 mph - N/A   Unknown
5:00 PM 58 °F 48 °F 60% 30.01 in - SSE 5.8 mph - -  
5:00 PM 58.3 °F 47.8 °F 68% 30.01 in - SSE 5.8 mph - N/A   Unknown
6:00 PM 56.1 °F 48.0 °F 74% 30.01 in - SSE 5.8 mph - N/A   Unknown
7:00 PM 51.1 °F 46.9 °F 86% 30.01 in - NE 1.2 mph - N/A   Unknown
8:00 PM 49 °F 46 °F 85% 30.02 in - Calm Calm - -  
8:00 PM 48.6 °F 45.9 °F 90% 30.02 in - Calm Calm - N/A   Unknown
9:00 PM 47.7 °F 46.9 °F 97% 30.03 in - ENE 1.2 mph - N/A   Unknown
10:00 PM 46.6 °F 46.0 °F 98% 30.04 in - East 1.2 mph - N/A   Unknown
11:00 PM 45 °F 44 °F 97% 30.04 in - Calm Calm - -  
11:00 PM 44.8 °F 44.4 °F 99% 30.04 in - Calm Calm - N/A   Unknown